Weather Roundup
Issued by NWS Chicago, IL

Home | Current Version | Previous Version | Text Only | Print | Product List | Glossary Off
Versions: 1 2 3 4 5 6 7 8 9 10 11 12 13 14 15 16 17 18 19 20 21 22 23 24 25 26 27 28 29 30 31 32 33 34 35 36 37 38 39 40 41 42 43 44 45 46 47 48 49 50

000
NZUS59 KLOT 211412
HRRLOT

CHICAGO AREA WEATHER ROUNDUP
NATIONAL WEATHER SERVICE CHICAGO/ROMEOVILLE IL
800 AM CST TUE FEB 21 2017

NOTE: "FAIR" INDICATES FEW OR NO CLOUDS BELOW 12,000 FEET WITH NO
SIGNIFICANT WEATHER AND/OR OBSTRUCTIONS TO VISIBILITY.

* THESE STATIONS ARE NOT UNDER NWS QUALITY CONTROL. THEY ALSO MAY NOT
  REPORT WEATHER SUCH AS PRECIPITATION OR FOG.

ILZ005-006-012>014-019>023-211500-
NORTHEAST ILLINOIS

CITY           SKY/WX    TMP DP  RH WIND       PRES   REMARKS
OHARE          CLOUDY    56  53  90 W3        29.93R FOG
MIDWAY         LGT RAIN  55  52  89 S8        29.93S FOG
AURORA         CLOUDY    55  53  93 SW5       29.95R FOG
LANSING*       LGT RAIN  52  52 100 CALM      29.94F
JOLIET*        CLOUDY    55  55  99 CALM      29.94F FOG
WAUKEGAN       CLOUDY    54  53  97 SW7       29.93R FOG
DUPAGE AIRPORT CLOUDY    54  52  93 W6        29.94R FOG
WHEELING       CLOUDY    55  53  93 SW3       29.95R FOG
KANKAKEE*      RAIN      52  52  98 CALM      29.94F
MORRIS*        PTSUNNY   52  51  97 CALM      29.93F FOG
LEWIS AIRPORT* PTSUNNY   53  53 100 S5        29.94F FOG
NORTHERLY ISL    N/A     54  51  90 S5          N/A
$$

WIZ051-052-058>065-066-070>072-211500-
SOUTHEAST WISCONSIN

CITY           SKY/WX    TMP DP  RH WIND       PRES   REMARKS
MILWAUKEE      PTSUNNY   56  52  86 W7        29.92R FOG
KENOSHA*       CLOUDY    55  52  89 W7        29.93R FOG
RACINE*        CLOUDY    55  52  89 SW5       29.94R FOG
WAUKESHA       PTSUNNY   48  45  87 W10       29.93R
WEST BEND      PTSUNNY   46  45  93 W8        29.92R
$$

INZ001>003-010>013-019-020-211500-
NORTHWEST INDIANA

CITY           SKY/WX    TMP DP  RH WIND       PRES   REMARKS
GARY*          CLOUDY    54  52  94 S8        29.94F FOG
MICHIGAN CITY* NOT AVBL
RENSSELAER*    NOT AVBL
VALPARAISO     CLOUDY    54  50  86 S8        29.96F FOG
$$

LMZ740>746-211500-
SOUTHERN LAKE MICHIGAN

STATION/POSITION TIME  SKY/WX   TEMP WIND        PRES    VSBY
                                AIR  DIR/SP/G
                 (UTC)          (F)  (DEG/KT/KT) (MB)    (MI)
HARRISON CRIB    1340            56  190/ 12/ 13   N/A
BURNHAM HARBOR   1400            54  180/  6/  9   N/A
CALUMET HARBOR   1348            53  250/  4/  6 1013.8R
BURNS HARBOR     1340            54  170/  8/ 14 1014.2S
MICHIGAN CITY    1340            53  150/ 11/ 13   N/A
$$

ABBREVIATIONS USED IN REMARKS
   TC - TEMPERATURE IN CELSIUS
  WCI - WIND CHILL INDEX
   HX - HEAT INDEX
  VSB - VISIBILITY
$$




USA.gov is the U.S. government's official web portal to all federal, state and local government web resources and services.